Regional Weather Roundup
Issued by NWS Jackson, KY

Home | Current Version | Previous Version | Graphics & Text | Print | Product List | Glossary Off
Versions: 1 2 3 4 5 6 7 8 9 10 11 12 13 14 15 16 17 18 19 20 21 22 23 24 25 26 27 28 29 30 31 32 33 34 35 36 37 38 39 40 41 42 43 44 45 46 47 48 49 50

000
ASUS43 KJKL 282219
RWRJKL

EAST KENTUCKY HOURLY WEATHER ROUNDUP
NATIONAL WEATHER SERVICE JACKSON KY
500 PM EST SUN DEC 28 2014

NOTE: "FAIR" INDICATES FEW OR NO CLOUDS BELOW 12,000 FEET WITH
NO SIGNIFICANT WEATHER AND/OR OBSTRUCTIONS TO VISIBILITY.

* THESE REPORTS ARE NOT UNDER NWS QUALITY CONTROL AND MAY NOT
  REPORT WEATHER SUCH AS PRECIPITATION AND FOG.

KYZ079-080-083-085-087-088-110-112-115-119-120-282300
...EASTERN KENTUCKY...

CITY           SKY/WX    TMP DP  RH WIND       PRES   REMARKS
JACKSON        LGT RAIN  41  39  93 CALM      30.10R FOG
LONDON         LGT RAIN  43  38  82 N7        30.10S
SOMERSET*      LGT RAIN  39  39 100 CALM      30.14R
MONTICELLO*    CLOUDY    43  41  93 NW5       30.15R FOG
MIDDLESBORO*   CLOUDY    48  47  94 N6        30.08R
HARLAN APT*    CLOUDY    46  46 100 W5        30.06R
BLACK MTN*       N/A     41  41 100 SW3         N/A
PIKEVILLE APT* DRIZZLE   41  41 100 N9        30.07R
BIG SANDY*     DRIZZLE   42  41  97 N3        30.10R
MOREHEAD APT*  CLOUDY    36  36 100 NW5       30.16R FOG     WCI  32
ASHLAND*         N/A    N/A N/A N/A MISG        N/A
$$

KYZ035-036-041-042-044-050-067-078-099-282300
...CENTRAL KENTUCKY...

CITY           SKY/WX    TMP DP  RH WIND       PRES   REMARKS
MT STERLING*   CLOUDY    36  36 100 N7        30.15S FOG     WCI  30
FLEMING/MASON* CLOUDY    34  32  93 N3        30.16R FOG
DANVILLE*      DRIZZLE   36  36 100 N6        30.14R WCI  31
RICHMOND*      CLOUDY    37  36  93 N6        30.13R WCI  33
LEXINGTON      CLOUDY    36  34  92 N8        30.15R FOG     WCI  30
FRANKFORT      CLOUDY    35  32  88 N6        30.15R WCI  30
$$

KYZ091>093-OHZ055-061-077-WVZ005-015-034-035-042-282300
...SOUTHERN OHIO/WEST VIRGINIA...

CITY           SKY/WX    TMP DP  RH WIND       PRES   REMARKS
COVINGTON      CLOUDY    36  27  69 N8        30.15R WCI  30
COLUMBUS       CLOUDY    37  29  72 NW7       30.12S WCI  32
DAYTON         CLOUDY    36  29  75 NW8       30.15R WCI  30
WILMINGTON     CLOUDY    35  28  75 N7        30.13R WCI  29
HUNTINGTON     CLOUDY    38  37  97 NW6       30.12R WCI  33
CHARLESTON     LGT RAIN  41  39  93 VRB7      30.09R FOG
PINEVILLE*     CLOUDY    49  49 100 MISG      30.09R
BECKLEY        CLOUDY    45  42  89 W5        30.04S
BLUEFIELD      CLOUDY    46  43  89 W7        30.04F FOG
$$

VAZ002-007-008-TNZ017-027-036-066-071-282300
...SOUTHWEST VIRGINIA/EAST TENNESSEE...

CITY           SKY/WX    TMP DP  RH WIND       PRES   REMARKS
WISE*          FOG       46  46 100 CALM      30.05S VSB<1/4
JONESVILLE*    CLOUDY    50  50 100 CALM      30.08R
ABINGDON*      CLOUDY    48  48  99 CALM      30.06R FOG
BRISTOL        DRZL/FOG  48  47  96 SE3       30.07R VSB 3/4
KNOXVILLE      CLOUDY    50  50 100 N3        30.06R FOG
OAK RIDGE      CLOUDY    52  50  93 CALM      30.09R FOG
CROSSVILLE     CLOUDY    45  43  93 NW3       30.10R FOG
NASHVILLE      LGT RAIN  40  38  93 N6        30.16R
$$

...KEY TO REMARKS...
VSB - VISIBILITY IN MILES
WCI - WIND CHILL INDEX
HX  - HEAT INDEX

$$


USA.gov is the U.S. government's official web portal to all federal, state and local government web resources and services.